COSMOS 1275 DEB, 42146

Orbit data source: Space-Track

COSMOS 1275 DEB, 42146 is space debris in LEO originally from a launch on Thu, 04 Jun 1981 UTC launched from the Plesetsk Missile And Space Complex (PKMTR). Debris objects in space refer to the collection of defunct objects orbiting the Earth. Examples of debris include non-operational satellites, rocket bodies, and fragments generated from explosions, collisions, or faulty payload assembly.

Loading next visibility...
Identifier
42146, 1981-053RJ
Orbit
LEO
Country
Flag of CISCIS
Related business
Manufacturer
Unknown
Mission
Spacecraft
Bus & Motor
Unknown
Mass
Unknown
Launch date (UTC)
1981-06-04 (45 years ago)
Launch vehicle
Unknown
Launch site
Plesetsk Missile And Space Complex (PKMTR)
Object type
Payload
Rocket body
Debris
Shape & HBR
Unknown shape, 0.1 m
Radar Cross Section
Small (<0.1 m²)

Expand to show TLE details & history
Last TLE update: 1 month ago

TLE from 1 month ago
0 COSMOS 1275 DEB
1 42146U 81053RJ  26125.42248964  .00001201  00000-0  10088-2 0  9992
2 42146  83.0065 174.8398 0093164 347.7543  12.1354 13.85356032626496
Epoch: 2026-05-05T10:08Z
TLE epoch observation values (Epoch: 2026-05-05T10:08:23.104Z)
Latitude
-0.00002°
Longitude
159.44597°
Altitude
881.182 km
Speed
7.445 km/s
True Right ascension
11h 39m 21s
True Declination
0° 00' 00"
Sunlit
Object was in full shadow at epoch
Visualization orbit readout
Latitude
Unknown
Longitude
Unknown
Altitude
Unknown
Speed
Unknown
Apparent Right ascension
Unknown
Apparent Declination
Unknown
Sunlit
N/A
Visualization observer readout
Local Sidereal Time
18:23:42
Azimuth
Unknown
Elevation
Unknown
Doppler factor
Unknown
Orbital elements
Apogee altitude
1,010.281 km
Perigee altitude
873.884 km
Semi-major axis
7,320.219 km
Eccentricity
0.00932
Inclination
83.0065°
RAAN
174.8398°
Arg. of periapsis
347.7543°
True anomaly
12.36241°
Mean anomaly
12.1354°
Eccentric anomaly
12.24865°
Mean motion
3.46543 °/min
Orbital period
103.88 mins
BSTAR
0.0010088
Loading maneuver chart data...
Computing Atmospheric mass density...

Documentation

Showing up to 5 results
|